Lid_Strength_Index
-0 0 3 4 10 13 15 14 12 12 12 10 10 10 11 10 10 14 6 3 1 1 0 -1 -1 -2 -2 -2 -2 -2 -2 -2 -2 -2 -2 -2 -2 -2 -2 -1 -1 -1 -2 -2 -2 -1 -1 -1 -1
1 1 3 7 12 17 15 14 13 11 10 10 9 10 10 10 6 5 6 3 1 0 0 -0 -1 -2 -2 -2 -2 -2 -2 -2 -2 -2 -2 -2 -2 -2 -2 -2 -2 -2 -2 -2 -2 -2 -1 -1 -1
2 2 6 10 13 14 15 13 11 11 10 10 10 8 8 8 5 5 4 3 3 1 0 -0 -2 -2 -2 -2 -2 -2 -2 -2 -2 -2 -2 -2 -2 -2 -2 -2 -2 -2 -2 -2 -2 -2 -2 -1 -1
2 4 8 11 13 12 13 12 11 11 10 10 9 9 6 4 4 4 3 3 3 1 0 -1 -1 -2 -2 -2 -2 -2 -2 -2 -2 -2 -2 -2 -2 -2 -2 -2 -2 -2 -2 -2 -2 -2 -2 -2 -1
5 7 11 13 12 13 12 11 11 11 11 11 9 9 8 5 3 4 5 4 5 4 1 0 -1 -1 -2 -2 -2 -2 -2 -2 -2 -2 -2 -2 -2 -2 -2 -2 -2 -2 -2 -2 -2 -2 -2 -2 -2
8 8 13 14 12 12 11 10 10 11 10 9 8 8 8 5 5 6 4 4 2 1 1 1 -1 -1 -2 -2 -2 -2 -3 -2 -2 -3 -3 -2 -2 -2 -2 -2 -2 -2 -2 -2 -2 -2 -2 -2 -2
9 10 13 12 12 13 11 10 11 10 11 10 8 9 8 7 7 6 6 6 5 3 2 2 3 1 0 -1 -2 -1 -1 -1 -2 -2 -2 -2 -2 -2 -2 -2 -2 -2 -2 -2 -2 -2 -2 -2 -1
8 9 12 13 14 14 10 11 11 10 10 7 6 9 10 8 6 6 6 5 6 5 5 5 3 2 2 1 -1 -2 -2 -2 -1 -2 -2 -2 -2 -2 -2 -2 -2 -2 -2 -2 -2 -2 -2 -2 -2
8 11 13 12 13 12 12 12 10 8 8 7 7 7 7 6 6 6 6 5 5 3 4 4 2 2 2 1 1 -0 -1 -2 -1 -1 -1 -1 -0 -0 -1 -1 -2 -2 -2 -2 -2 -2 -1 -2 -1
10 12 11 10 12 12 11 11 9 9 8 8 8 6 6 6 6 6 6 5 5 4 3 2 2 2 2 1 2 2 1 0 0 -1 -0 -0 -0 -0 -0 -1 -1 -2 -2 -2 -1 -1 -1 -1 -1
10 10 9 9 10 10 11 11 9 9 9 8 9 7 7 6 6 6 5 5 5 4 2 3 3 2 2 2 1 2 1 0 -1 0 -1 -1 -1 -0 -0 -0 -1 -0 -1 -1 -1 -1 -1 -0 -1
11 9 9 9 9 11 10 9 9 9 8 6 7 6 7 7 6 6 5 5 4 4 3 3 3 3 3 2 2 2 1 0 0 0 -0 0 0 0 1 0 1 0 -0 -0 -0 -0 0 -0 -0
10 9 9 9 10 10 9 10 9 8 6 6 7 6 7 7 6 5 4 4 3 3 3 4 2 2 3 2 3 3 1 0 0 1 1 1 1 2 1 1 1 0 -0 -0 -0 -0 -0 -0 -0
8 10 9 10 11 10 10 10 9 7 6 7 7 7 7 6 6 5 4 4 3 3 3 4 3 2 2 3 3 3 2 2 1 2 1 1 2 2 2 1 1 1 0 -0 -0 -0 -0 0 -0
10 11 10 10 10 10 10 11 9 7 7 8 7 7 7 6 6 4 4 4 4 3 4 4 3 2 3 3 3 3 2 2 2 2 1 1 1 2 1 1 1 1 0 -0 -0 -0 -0 0 -0
11 12 14 10 9 9 10 12 9 8 8 8 8 8 7 7 6 4 3 3 3 4 4 4 3 3 3 3 3 3 2 2 2 2 1 1 1 1 1 1 1 1 1 0 0 0 1 1 1
13 14 13 11 9 10 10 12 9 8 8 8 8 8 8 8 7 5 3 3 3 3 3 3 4 3 3 3 3 3 2 2 2 1 1 1 0 0 1 1 0 -0 -0 0 0 1 1 1 1
14 13 12 12 10 10 12 12 10 8 8 8 9 9 9 8 7 5 3 3 3 3 3 3 4 3 3 3 3 2 2 2 2 1 1 0 -0 0 -0 1 1 -0 0 1 0 1 1 1 1
11 12 12 10 9 11 11 11 9 9 9 9 10 10 9 9 7 5 3 3 3 3 2 3 4 4 4 3 3 3 3 3 2 1 0 -0 -0 0 0 0 0 0 1 1 1 1 1 1 1
11 12 12 10 9 11 11 11 10 9 9 9 9 10 10 9 8 6 4 4 3 3 3 3 3 3 4 4 4 4 3 2 2 1 1 -0 -0 -0 0 0 0 0 1 1 1 1 2 2 1
11 12 12 11 10 11 12 13 11 10 9 9 10 9 9 9 9 7 4 4 4 4 3 2 2 4 5 4 3 3 2 2 1 1 1 1 -0 -0 0 0 0 0 0 1 1 1 2 3 1
13 10 10 11 13 15 12 17 12 11 10 9 10 10 9 9 8 7 5 5 4 4 3 3 2 3 3 4 3 3 3 3 2 1 1 1 1 0 0 0 0 0 0 1 1 1 1 1 3
11 9 10 11 13 15 14 16 13 11 10 10 9 10 10 10 9 8 6 5 4 3 3 3 3 2 3 4 2 2 2 2 2 2 2 1 0 -0 -0 0 -0 0 0 0 1 1 1 1 2
8 11 12 13 14 18 14 14 15 13 10 10 10 10 10 10 9 7 5 5 4 4 3 3 3 2 3 3 3 2 4 4 3 3 2 2 1 0 -0 0 0 0 0 0 1 1 1 1 1
11 14 17 18 18 18 13 15 13 10 9 9 9 11 10 10 9 7 6 5 5 5 3 3 3 3 3 3 3 2 4 5 4 4 3 2 2 1 1 0 1 1 0 0 0 1 1 1 1
13 13 17 20 19 17 12 15 12 9 8 8 9 10 10 9 9 7 6 5 5 4 4 3 3 3 3 3 3 3 3 4 5 4 3 3 2 1 1 1 0 1 1 -0 0 0 1 1 2
12 14 13 16 15 16 14 12 9 9 8 9 10 10 10 10 9 7 6 5 5 5 4 3 3 4 3 2 3 2 3 4 5 5 4 3 2 1 1 1 2 1 1 0 1 1 1 1 1
10 10 15 16 19 19 16 15 14 11 10 9 10 11 10 9 9 7 6 5 5 5 4 3 3 3 4 3 3 3 3 3 4 4 4 3 3 3 3 3 4 4 3 2 2 2 2 2 2
12 13 13 14 16 18 19 16 10 10 9 9 9 11 10 9 8 7 6 5 5 5 5 3 4 4 5 5 4 3 3 3 3 4 3 3 4 3 4 3 3 3 3 2 3 3 3 3 3
10 11 12 15 16 15 15 15 9 9 8 8 8 10 10 9 8 7 6 5 5 5 5 4 4 4 5 5 4 3 4 4 4 4 3 3 3 3 3 2 3 3 3 3 3 3 3 3 3